sat.trackr.live / text

‹ back to catalog

QIANFAN-183

NORAD 69401 · 2026-125A

PAYLOAD ACTIVE UNKNOWN

§ Identity

Operator
Country
PRC
Launch date
2026-06-05
Launch site
WSC
Launch vehicle
Mass (kg)
RCS (m²)

External: N2YO · Heavens-Above · Gunter

§ Orbital elements

Epoch: 2026-09-20T03:48:23.954112Z

Period
106.59 min
Inclination
88.9832°
Eccentricity
0.0002047
Mean motion
13.51027474 rev/d
Perigee alt
1,067.0 km
Apogee alt
1,070.0 km
Semi-major
7,446.6 km
B*
2.6145e-5
RAAN
270.3386°
Arg perigee
101.4729°
Mean anomaly
258.6652°
Rev number
1,476

§ Raw data

QIANFAN-1831 69401U 26125A   26263.15861058  .00000029  00000+0  26145-4 0  99912 69401  88.9832 270.3386 0002047 101.4729 258.6652 13.51027474 14762

JSON: /api/v1/satellites/69401 · /tle

For live sub-satellite position, see the globe view (requires WebGL).

§ Visibility from observer

Set your observer location to see the next 7 days of passes ≥ 10°. The values pass through the URL so the page stays shareable.

No JS? Fill the form by hand. The geolocation button needs JavaScript.